Tracking 18980 objects as of 21-Feb-2018
HD Live streaming from Space Station
objects crossing your sky now

OV1-9

Track OV1-9 now!
10-day predictions
OV1-9 is classified as:


NORAD ID: 2610
Int'l Code: 1966-111A
Perigee: 482.0 km
Apogee: 4,546.5 km
Inclination: 99.1 °
Period: 138.9 minutes
Semi major axis: 8885 km
RCS: 0.6636 m2 (medium)
Launch date: December 11, 1966
Source: United States (US)
Launch site: AIR FORCE WESTERN TEST RANGE (AFWTR)
aabbcc
Your satellite tracking list
Your tracking list is empty




NASA's NSSDC Master Catalog

Two Line Element Set (TLE):
1 02610U 66111A   18052.12150742  .00000001  00000-0  12998-4 0  9996
2 02610  99.1025 103.1838 2287201 325.7631  21.4649 10.36567191917642
Source of the keplerian elements: AFSPC